Location: Sungai Liu
(2.3667°N, 113.8667°E)
Time: 13:10:44
(UTC+00:00)

Cosmos 1943 Rocket - Pass Details

Date: 20 May 2022
Orbit: 810 x 845 km, 71.0° (Epoch: 06 July)

Event Time Altitude Azimuth Distance (km) Brightness Sun altitude
Rises 20:28:38 0° 348° (NNW) 3,386 5.5 -25.3°
Reaches altitude 10° 20:31:05 10° 350° (N) 2,452 4.7 -24.8°
Maximum altitude 20:36:42 75° 75° (ENE) 869 2.3 -23.5°
Drops below altitude 10° 20:42:18 10° 160° (SSE) 2,443 4.6 -22.2°
Sets 20:44:44 0° 161° (SSE) 3,373 5.3 -21.6°
